Other Surface Observations
Issued by NWS Charleston, SC

Home | Current Version | Previous Version | Text Only | Print | Product List | Glossary On
Versions: 1 2 3 4 5 6 7 8 9 10 11 12 13 14 15 16 17 18 19 20 21 22 23 24 25 26 27 28 29 30 31 32 33 34 35 36 37 38 39 40 41 42 43 44 45 46 47 48 49 50
000
SXUS52 KCHS 091327
OSOCHS

MARINE OBSERVATIONS
NATIONAL WEATHER SERVICE CHARLESTON SC
800 AM EST FRI DEC 09 2016

...DOWNTOWN CHARLESTON AND HARBOR...

CITY           SKY/WX    TMP DP  RH WIND       PRES   REMARKS
WATERFRONT PRK   N/A     42  28  57 N13       30.36R

...LAKE MOULTRIE...

CITY           SKY/WX    TMP DP  RH WIND       PRES   REMARKS
PINOPOLIS        N/A     41  27  56 N14       30.31R

...LAKE AND SUPPLEMENTAL COASTAL OBSERVATIONS...

STATION/POSITION TIME  TEMP    WIND        PRES    WAVE   SWELL
                       AIR SEA DIR/SP/G            HT/PER HT/PER/DIR
                 (UTC) (F)     (DEG/KT/KT) (MB)    (FT/S) (FT/S/D)
FORT PULASKI     1300   41 61  360/ 10/ 12 1029.2
SAPELO ISLAND    1300   42     340/  9     1029.0
WINYAH BAY       1245   36     360/  3     1028.0R
LAKE MURRAY      1220   33     330/  2/  6 1028.4
ACE BASIN NERRS  1245   38     350/  3     1029.0R


...C-MAN AND BUOY OBSERVATIONS...

STATION/POSITION TIME  TEMP    WIND        PRES    WAVE   SWELL
                       AIR SEA DIR/SP/G            HT/PER HT/PER/DIR
                 (UTC) (F)     (DEG/KT/KT) (MB)    (FT/S) (FT/S/D)
BUOY 41004       1250   51 73   10/ 17/ 23 1026.5R   6/ 7
BUOY 41008       1250   49 63  360/ 16/ 21 1027.6R   4/ 6   2/110/10
FOLLY BEACH CMAN 1300   43     360/ 11/ 14 1029.0R
CAPERS NS BUOY   1208   44 60   20/ 17/ 23 1027.5R
FRIPP NS BUOY    1308   46 61   10/ 16/ 21 1028.8R
5E ST. MARYS GA  1300      65                N/A     4/ 4


STATION/POSITION TIME  TEMP    WIND        PRES    WAVE   SWELL
                       AIR SEA DIR/SP/G            HT/PER HT/PER/DIR
                 (UTC) (F)     (DEG/KT/KT) (MB)    (FT/S) (FT/S/D)
FRYING PAN BUOY  1300   48 73   10/ 19/ 27 1027.0
BUOY 41025       1250   44 75  350/ 19/ 23 1024.7R   6/ 6   2/200/11
CAPE LOOKOUT NC  1300   38     340/ 17/ 20 1026.5R
BUOY 41002       1250   62 74  360/ 17/ 23 1021.9R   7/ 8   3/ 30/11
BUOY 41010       NOT AVBL
ST AUGUSTINE FL  1300   47 65  330/ 14/ 16 1027.7S

$$




USA.gov is the U.S. government's official web portal to all federal, state and local government web resources and services.